This is the latest recevied weather packets stored in our database for station/object GW1495. If no packets are shown the sender has not sent any weather packets the latest 10 day(s).
| Time | Temp. | Humidity | Pressure | Rain* | Wind** | Luminosity | Snow |
|---|---|---|---|---|---|---|---|
| 1777476262 | 19.44° C | 94% | 1015.9 hPa | 1.52 mm | - | - | - |
| 1777475927 | 19.44° C | 94% | 1015.9 hPa | 1.52 mm | - | - | - |
| 1777474460 | 18.33° C | 97% | 1015.9 hPa | 1.27 mm | - | - | - |
| 1777469809 | 17.78° C | 97% | 1016.2 hPa | 1.02 mm | - | - | - |
| 1777469074 | 17.22° C | 98% | 1016.5 hPa | 1.02 mm | - | - | - |
| 1777467288 | 16.67° C | 99% | 1016.5 hPa | 1.02 mm | - | - | - |
| 1777466905 | 16.11° C | 99% | 1016.5 hPa | 1.02 mm | - | - | - |
| 1777465467 | 15.56° C | 99% | 1016.9 hPa | 1.02 mm | - | - | - |
| 1777464764 | 15.56° C | 99% | 1016.9 hPa | 1.02 mm | - | - | - |
| 1777464393 | 15.56° C | 99% | 1016.9 hPa | 1.02 mm | - | - | - |
| 1777462580 | 15° C | 99% | 1016.9 hPa | 1.02 mm | - | - | - |
| 1777453241 | 15° C | 99% | 1015.9 hPa | 0 mm | - | - | - |
| 1777452889 | 15° C | 99% | 1016.2 hPa | 0 mm | - | - | - |
| 1777452153 | 15° C | 99% | 1017.2 hPa | 0 mm | - | - | - |
| 1777448568 | 15° C | 99% | 1017.6 hPa | 0 mm | - | - | - |
| 1777448179 | 15° C | 99% | 1017.6 hPa | 0 mm | - | - | - |
| 1777445669 | 15° C | 99% | 1017.9 hPa | 0 mm | - | - | - |
| 1777445330 | 15° C | 99% | 1017.9 hPa | 0 mm | - | - | - |
| 1777443878 | 15° C | 98% | 1018.6 hPa | 0 mm | - | - | - |
| 1777442072 | 15° C | 99% | 1018.9 hPa | 0 mm | - | - | - |
| 1777441332 | 14.44° C | 98% | 1018.6 hPa | 0 mm | - | - | - |
| 1777438126 | 15° C | 98% | 1018.9 hPa | 0 mm | - | - | - |
| 1777436667 | 15.56° C | 97% | 1018.9 hPa | 0 mm | - | - | - |
| 1777433447 | 15.56° C | 97% | 1019.9 hPa | 13.21 mm | - | - | - |
| 1777431256 | 16.11° C | 95% | 1020.3 hPa | 13.21 mm | - | - | - |
* Rain since midnight (hover to see other rain measurements)
** Current wind speed in m/s (hover to see current wind gust speed)